| time (UTC) | temp F | wind direction | speed knots | gust knots | rain 1hr in | rain 24hr in | rain mn in | humidity % | barometer mb |
| 20260507174003 | 57 | 247 | 0.9 | 5.2 | 0.00 | 0.11 | 0.11 | 80 | 999.2 |
| 20260507173004 | 55 | 266 | 1.7 | 6.1 | 0.00 | 0.11 | 0.11 | 84 | 998.8 |
| 20260507172003 | 55 | 227 | 1.7 | 7.0 | 0.01 | 0.11 | 0.11 | 92 | 999.2 |
| 20260507171003 | 53 | 253 | 0.9 | 5.2 | 0.01 | 0.11 | 0.11 | 91 | 999.5 |
| 20260507170004 | 52 | 282 | 1.7 | 5.2 | 0.01 | 0.11 | 0.11 | 93 | 999.5 |
| 20260507165004 | 52 | 287 | 0.9 | 3.5 | 0.01 | 0.11 | 0.11 | 95 | 999.8 |
| 20260507164004 | 51 | 262 | 0.9 | 3.5 | 0.01 | 0.11 | 0.11 | 96 | 999.5 |
| 20260507163003 | 51 | 219 | 0.9 | 2.6 | 0.01 | 0.11 | 0.11 | 96 | 999.5 |
| 20260507162003 | 51 | 273 | 0.9 | 3.5 | 0.00 | 0.10 | 0.10 | 96 | 999.8 |
| 20260507161004 | 51 | 275 | 0.9 | 5.2 | 0.00 | 0.10 | 0.10 | 95 | 999.8 |
| 20260507160004 | 51 | 264 | 0.9 | 5.2 | 0.00 | 0.10 | 0.10 | 96 | 999.8 |
| 20260507155003 | 51 | 256 | 0.9 | 3.5 | 0.00 | 0.10 | 0.10 | 96 | 1000.2 |
| 20260507154004 | 51 | 261 | 0.9 | 3.5 | 0.00 | 0.10 | 0.10 | 96 | 999.5 |
| 20260507153003 | 51 | 277 | 0.9 | 5.2 | 0.00 | 0.10 | 0.10 | 95 | 1000.5 |
| 20260507152003 | 51 | 270 | 0.9 | 5.2 | 0.00 | 0.10 | 0.10 | 95 | 1000.9 |
| 20260507151003 | 51 | 264 | 0.9 | 2.6 | 0.00 | 0.10 | 0.10 | 95 | 1000.9 |
| 20260507150004 | 51 | 282 | 0.9 | 2.6 | 0.00 | 0.10 | 0.10 | 95 | 1000.2 |
| 20260507145003 | 51 | 255 | 0.9 | 2.6 | 0.00 | 0.10 | 0.10 | 96 | 1000.5 |
| 20260507144003 | 51 | 264 | 0.9 | 3.5 | 0.00 | 0.10 | 0.10 | 96 | 1000.9 |
| 20260507143004 | 51 | 211 | 0.0 | 2.6 | 0.01 | 0.10 | 0.10 | 96 | 1000.9 |
| 20260507142004 | 51 | 177 | 0.0 | 2.6 | 0.02 | 0.10 | 0.10 | 96 | 1000.2 |
| 20260507141004 | 51 | 181 | 0.9 | 2.6 | 0.03 | 0.10 | 0.10 | 96 | 1000.9 |
| 20260507140003 | 51 | 205 | 0.0 | 0.9 | 0.03 | 0.10 | 0.10 | 96 | 1000.9 |
| 20260507135003 | 51 | 203 | 0.9 | 2.6 | 0.03 | 0.10 | 0.10 | 95 | 1000.2 |
| 20260507134003 | 52 | 206 | 0.0 | 2.6 | 0.03 | 0.10 | 0.10 | 95 | 1000.2 |
| 20260507133003 | 52 | 206 | 0.9 | 3.5 | 0.02 | 0.09 | 0.09 | 94 | 1000.9 |
| 20260507132003 | 52 | 249 | 0.9 | 7.0 | 0.01 | 0.08 | 0.08 | 92 | 1001.2 |
| 20260507131003 | 53 | 192 | 0.9 | 1.7 | 0.00 | 0.07 | 0.07 | 90 | 1000.9 |
| 20260507130004 | 53 | 202 | 0.9 | 3.5 | 0.00 | 0.07 | 0.07 | 89 | 1000.9 |
| 20260507125004 | 53 | 204 | 1.7 | 6.1 | 0.00 | 0.07 | 0.07 | 88 | 1000.9 |
| 20260507124003 | 53 | 184 | 1.7 | 5.2 | 0.00 | 0.07 | 0.07 | 88 | 1001.2 |
| 20260507123004 | 53 | 202 | 1.7 | 6.1 | 0.00 | 0.07 | 0.07 | 89 | 1000.9 |
| 20260507122004 | 53 | 192 | 1.7 | 5.2 | 0.00 | 0.07 | 0.07 | 89 | 1000.5 |
| 20260507121004 | 53 | 203 | 1.7 | 6.1 | 0.00 | 0.07 | 0.07 | 90 | 1000.5 |
| 20260507120004 | 53 | 194 | 1.7 | 5.2 | 0.00 | 0.07 | 0.07 | 91 | 1000.5 |
| 20260507115003 | 52 | 190 | 2.6 | 7.0 | 0.00 | 0.07 | 0.07 | 92 | 1000.2 |
| 20260507114004 | 53 | 208 | 2.6 | 12.2 | 0.00 | 0.07 | 0.07 | 91 | 1000.9 |
| 20260507113004 | 53 | 199 | 0.9 | 6.1 | 0.01 | 0.07 | 0.07 | 94 | 1000.9 |
| 20260507112004 | 53 | 183 | 0.9 | 3.5 | 0.02 | 0.07 | 0.07 | 95 | 1000.9 |
| 20260507111004 | 53 | 175 | 0.9 | 3.5 | 0.02 | 0.07 | 0.07 | 94 | 999.8 |
| 20260507110004 | 53 | 172 | 0.9 | 3.5 | 0.02 | 0.07 | 0.07 | 96 | 999.8 |
| 20260507105003 | 52 | 192 | 0.9 | 3.5 | 0.02 | 0.07 | 0.07 | 95 | 999.8 |
| 20260507104004 | 52 | 170 | 0.9 | 1.7 | 0.02 | 0.07 | 0.07 | 95 | 999.8 |
| 20260507103003 | 53 | 185 | 1.7 | 7.0 | 0.01 | 0.06 | 0.06 | 94 | 1000.2 |
| 20260507102003 | 53 | 167 | 2.6 | 5.2 | 0.00 | 0.05 | 0.05 | 91 | 1000.2 |
| 20260507101003 | 54 | 191 | 1.7 | 7.8 | 0.00 | 0.05 | 0.05 | 91 | 1000.5 |
| 20260507100004 | 54 | 184 | 2.6 | 7.0 | 0.00 | 0.05 | 0.05 | 91 | 1000.2 |
| 20260507095003 | 55 | 222 | 2.6 | 11.3 | 0.00 | 0.05 | 0.05 | 92 | 1000.2 |
| 20260507094004 | 55 | 201 | 1.7 | 7.0 | 0.00 | 0.05 | 0.05 | 93 | 1000.2 |
| 20260507093003 | 55 | 188 | 1.7 | 8.7 | 0.00 | 0.05 | 0.05 | 96 | 999.8 |
| 20260507092003 | 55 | 179 | 1.7 | 5.2 | 0.00 | 0.05 | 0.05 | 98 | 999.8 |
| 20260507091003 | 55 | 171 | 1.7 | 3.5 | 0.01 | 0.05 | 0.05 | 98 | 999.8 |
| 20260507090004 | 55 | 162 | 0.0 | 1.7 | 0.01 | 0.05 | 0.05 | 98 | 999.8 |
| 20260507085003 | 54 | 189 | 0.9 | 2.6 | 0.01 | 0.05 | 0.05 | 98 | 999.8 |
| 20260507084003 | 54 | 166 | 0.9 | 1.7 | 0.01 | 0.05 | 0.05 | 98 | 999.8 |
| 20260507083004 | 54 | 162 | 0.9 | 3.5 | 0.01 | 0.05 | 0.05 | 97 | 999.8 |
| 20260507082003 | 54 | 169 | 0.9 | 2.6 | 0.01 | 0.05 | 0.05 | 97 | 999.8 |
| 20260507081003 | 54 | 169 | 1.7 | 5.2 | 0.01 | 0.04 | 0.04 | 97 | 999.8 |
| 20260507080004 | 54 | 169 | 1.7 | 5.2 | 0.01 | 0.04 | 0.04 | 97 | 1000.2 |
| 20260507075004 | 54 | 161 | 1.7 | 5.2 | 0.01 | 0.04 | 0.04 | 96 | 1000.2 |
| 20260507074003 | 54 | 158 | 1.7 | 8.7 | 0.01 | 0.04 | 0.04 | 96 | 1000.5 |
| 20260507073004 | 55 | 154 | 1.7 | 3.5 | 0.01 | 0.04 | 0.04 | 96 | 1000.9 |
| 20260507072003 | 54 | 165 | 1.7 | 7.8 | 0.02 | 0.04 | 0.04 | 97 | 1001.2 |
| 20260507071003 | 54 | 166 | 1.7 | 3.5 | 0.01 | 0.03 | 0.03 | 96 | 1001.5 |
| 20260507070007 | 54 | 160 | 1.7 | 7.0 | 0.01 | 0.03 | 0.03 | 96 | 1001.9 |
| 20260507065004 | 54 | 171 | 1.7 | 5.2 | 0.01 | 0.03 | 0.03 | 95 | 1001.9 |
| 20260507064003 | 56 | 175 | 1.7 | 7.0 | 0.01 | 0.03 | 0.03 | 95 | 1001.9 |
| 20260507063003 | 56 | 169 | 1.7 | 7.0 | 0.01 | 0.03 | 0.03 | 95 | 1001.9 |
| 20260507062003 | 56 | 171 | 1.7 | 7.8 | 0.00 | 0.02 | 0.02 | 94 | 1002.2 |
| 20260507061004 | 56 | 183 | 1.7 | 3.5 | 0.01 | 0.02 | 0.02 | 94 | 1002.6 |
| 20260507060004 | 55 | 165 | 1.7 | 6.1 | 0.01 | 0.02 | 0.02 | 94 | 1002.9 |
| 20260507055003 | 55 | 168 | 1.7 | 5.2 | 0.02 | 0.02 | 0.02 | 94 | 1003.2 |
| 20260507054004 | 56 | 157 | 0.9 | 5.2 | 0.02 | 0.02 | 0.02 | 94 | 1003.6 |
| 20260507053004 | 56 | 164 | 0.9 | 3.5 | 0.02 | 0.02 | 0.02 | 94 | 1003.6 |
| 20260507052003 | 56 | 172 | 1.7 | 6.1 | 0.02 | 0.02 | 0.02 | 92 | 1003.9 |
| 20260507051003 | 56 | 164 | 1.7 | 5.2 | 0.01 | 0.01 | 0.01 | 91 | 1004.6 |
| 20260507050004 | 57 | 159 | 1.7 | 5.2 | 0.01 | 0.01 | 0.01 | 89 | 1004.3 |
| 20260507045003 | 58 | 160 | 0.9 | 6.1 | 0.00 | 0.00 | 0.00 | 86 | 1004.9 |
| 20260507044004 | 58 | 171 | 0.9 | 2.6 | 0.00 | 0.00 | 0.00 | 83 | 1005.3 |
| 20260507043003 | 59 | 181 | 1.7 | 7.8 | 0.00 | 0.00 | 0.00 | 82 | 1005.3 |
| 20260507042003 | 59 | 172 | 1.7 | 7.8 | 0.00 | 0.00 | 0.00 | 82 | 1005.3 |
| 20260507041004 | 59 | 179 | 1.7 | 7.0 | 0.00 | 0.00 | 0.00 | 82 | 1005.3 |
| 20260507040004 | 59 | 193 | 1.7 | 6.1 | 0.00 | 0.00 | 0.00 | 82 | 1006.0 |
| 20260507035004 | 59 | 177 | 1.7 | 3.5 | 0.00 | 0.00 | 0.00 | 82 | 1006.0 |
| 20260507034004 | 59 | 178 | 2.6 | 6.1 | 0.00 | 0.00 | 0.00 | 82 | 1006.3 |
| 20260507033003 | 58 | 161 | 1.7 | 5.2 | 0.00 | 0.00 | 0.00 | 84 | 1006.6 |
| 20260507032003 | 57 | 191 | 0.9 | 5.2 | 0.00 | 0.00 | 0.00 | 86 | 1006.3 |
| 20260507031003 | 58 | 174 | 0.9 | 5.2 | 0.00 | 0.00 | 0.00 | 85 | 1006.6 |
| 20260507030004 | 58 | 167 | 0.9 | 2.6 | 0.00 | 0.00 | 0.00 | 85 | 1006.6 |
| 20260507025004 | 59 | 159 | 1.7 | 3.5 | 0.00 | 0.00 | 0.00 | 81 | 1007.0 |
| 20260507024004 | 60 | 183 | 1.7 | 7.0 | 0.00 | 0.00 | 0.00 | 79 | 1007.3 |
| 20260507023004 | 60 | 174 | 1.7 | 6.1 | 0.00 | 0.00 | 0.00 | 78 | 1007.3 |
| 20260507022003 | 60 | 178 | 2.6 | 7.8 | 0.00 | 0.00 | 0.00 | 76 | 1007.0 |
| 20260507021004 | 60 | 176 | 1.7 | 7.0 | 0.00 | 0.00 | 0.00 | 78 | 1007.7 |
| 20260507020004 | 60 | 173 | 2.6 | 9.6 | 0.00 | 0.00 | 0.00 | 80 | 1007.7 |
| 20260507015004 | 60 | 179 | 3.5 | 8.7 | 0.00 | 0.00 | 0.00 | 81 | 1008.0 |
| 20260507014003 | 61 | 173 | 1.7 | 6.1 | 0.00 | 0.00 | 0.00 | 79 | 1008.7 |
| 20260507013004 | 61 | 170 | 2.6 | 9.6 | 0.00 | 0.00 | 0.00 | 79 | 1008.7 |
| 20260507012003 | 61 | 183 | 2.6 | 8.7 | 0.00 | 0.00 | 0.00 | 78 | 1008.7 |
| 20260507011003 | 61 | 190 | 1.7 | 7.0 | 0.00 | 0.00 | 0.00 | 80 | 1009.0 |
| 20260507010004 | 61 | 175 | 2.6 | 7.0 | 0.00 | 0.00 | 0.00 | 81 | 1009.0 |
| 20260507005004 | 62 | 182 | 2.6 | 7.0 | 0.00 | 0.00 | 0.00 | 80 | 1009.0 |
| 20260507004003 | 62 | 194 | 2.6 | 12.2 | 0.00 | 0.00 | 0.00 | 75 | 1009.0 |
| 20260507003003 | 62 | 194 | 2.6 | 8.7 | 0.00 | 0.00 | 0.00 | 75 | 1009.4 |
| 20260507002004 | 62 | 169 | 2.6 | 7.0 | 0.00 | 0.00 | 0.00 | 75 | 1009.0 |
| 20260507001003 | 63 | 192 | 2.6 | 9.6 | 0.00 | 0.00 | 0.00 | 74 | 1009.0 |
| 20260507000004 | 63 | 179 | 2.6 | 11.3 | 0.00 | 0.00 | 0.00 | 73 | 1009.0 |
| 20260506235003 | 64 | 174 | 3.5 | 11.3 | 0.00 | 0.00 | 0.00 | 72 | 1009.0 |
| 20260506234003 | 64 | 174 | 2.6 | 11.3 | 0.00 | 0.00 | 0.00 | 72 | 1009.0 |
| 20260506233003 | 64 | 184 | 3.5 | 8.7 | 0.00 | 0.00 | 0.00 | 71 | 1009.0 |
| 20260506232003 | 64 | 181 | 2.6 | 7.8 | 0.00 | 0.00 | 0.00 | 70 | 1009.0 |
| 20260506231003 | 64 | 179 | 3.5 | 14.8 | 0.00 | 0.00 | 0.00 | 70 | 1008.7 |
| 20260506230004 | 64 | 167 | 2.6 | 11.3 | 0.00 | 0.00 | 0.00 | 70 | 1008.7 |
| 20260506225004 | 64 | 180 | 3.5 | 11.3 | 0.00 | 0.00 | 0.00 | 69 | 1008.7 |
| 20260506224004 | 65 | 184 | 3.5 | 13.0 | 0.00 | 0.00 | 0.00 | 69 | 1008.7 |
| 20260506223004 | 65 | 175 | 4.3 | 12.2 | 0.00 | 0.00 | 0.00 | 68 | 1008.7 |
| 20260506222003 | 65 | 180 | 3.5 | 8.7 | 0.00 | 0.00 | 0.00 | 68 | 1008.7 |
| 20260506221003 | 65 | 194 | 3.5 | 12.2 | 0.00 | 0.00 | 0.00 | 68 | 1008.7 |
| 20260506220004 | 65 | 189 | 3.5 | 11.3 | 0.00 | 0.00 | 0.00 | 68 | 1008.7 |
| 20260506215004 | 65 | 188 | 3.5 | 9.6 | 0.00 | 0.00 | 0.00 | 68 | 1009.0 |
| 20260506214003 | 66 | 191 | 3.5 | 12.2 | 0.00 | 0.00 | 0.00 | 67 | 1009.0 |
| 20260506213004 | 65 | 185 | 3.5 | 13.9 | 0.00 | 0.00 | 0.00 | 67 | 1009.0 |
| 20260506212003 | 66 | 186 | 3.5 | 9.6 | 0.00 | 0.00 | 0.00 | 67 | 1009.0 |
| 20260506211003 | 66 | 186 | 3.5 | 8.7 | 0.00 | 0.00 | 0.00 | 67 | 1009.0 |
| 20260506210003 | 66 | 175 | 3.5 | 9.6 | 0.00 | 0.00 | 0.00 | 66 | 1008.7 |
| 20260506205004 | 66 | 193 | 4.3 | 12.2 | 0.00 | 0.00 | 0.00 | 66 | 1008.7 |
| 20260506204003 | 66 | 180 | 5.2 | 13.0 | 0.00 | 0.00 | 0.00 | 66 | 1009.0 |
| 20260506203004 | 67 | 190 | 4.3 | 12.2 | 0.00 | 0.00 | 0.00 | 66 | 1008.7 |
| 20260506202004 | 67 | 182 | 4.3 | 16.5 | 0.00 | 0.00 | 0.00 | 65 | 1008.7 |
| 20260506201003 | 67 | 184 | 4.3 | 11.3 | 0.00 | 0.00 | 0.00 | 66 | 1008.4 |
| 20260506200004 | 67 | 189 | 4.3 | 15.6 | 0.00 | 0.00 | 0.00 | 67 | 1008.4 |
| 20260506195003 | 67 | 180 | 4.3 | 13.0 | 0.00 | 0.00 | 0.00 | 66 | 1008.7 |
| 20260506194003 | 67 | 186 | 4.3 | 14.8 | 0.00 | 0.00 | 0.00 | 67 | 1008.4 |
| 20260506193004 | 67 | 173 | 5.2 | 14.8 | 0.00 | 0.00 | 0.00 | 66 | 1008.0 |
| 20260506192003 | 68 | 181 | 5.2 | 13.9 | 0.00 | 0.00 | 0.00 | 66 | 1008.4 |
| 20260506191003 | 67 | 172 | 4.3 | 8.7 | 0.00 | 0.00 | 0.00 | 66 | 1008.7 |
| 20260506190004 | 67 | 172 | 3.5 | 13.0 | 0.00 | 0.00 | 0.00 | 67 | 1008.7 |
| 20260506185003 | 67 | 204 | 4.3 | 13.0 | 0.00 | 0.00 | 0.00 | 68 | 1008.7 |
| 20260506184004 | 67 | 179 | 5.2 | 14.8 | 0.00 | 0.00 | 0.00 | 68 | 1009.4 |
| 20260506183004 | 68 | 173 | 5.2 | 13.0 | 0.00 | 0.00 | 0.00 | 67 | 1009.4 |
| 20260506182003 | 66 | 187 | 4.3 | 13.0 | 0.00 | 0.00 | 0.00 | 70 | 1009.4 |
| 20260506181003 | 66 | 195 | 3.5 | 11.3 | 0.00 | 0.00 | 0.00 | 71 | 1009.4 |
| 20260506180004 | 66 | 182 | 4.3 | 11.3 | 0.00 | 0.00 | 0.00 | 71 | 1009.7 |
| 20260506175004 | 66 | 180 | 3.5 | 14.8 | 0.00 | 0.00 | 0.00 | 70 | 1009.7 |